"Time","Value","Approval","myLocation"
"2023-04-18 00:00",7.349,"Approved","OW115"
"2023-04-18 01:00",7.349,"Approved","OW115"
"2023-04-18 02:00",7.349,"Approved","OW115"
"2023-04-18 03:00",7.349,"Approved","OW115"
"2023-04-18 04:00",7.349,"Approved","OW115"
"2023-04-18 05:00",7.349,"Approved","OW115"
"2023-04-18 06:00",7.35,"Approved","OW115"
"2023-04-18 07:00",7.35,"Approved","OW115"
"2023-04-18 08:00",7.35,"Approved","OW115"
"2023-04-18 09:00",7.35,"Approved","OW115"
"2023-04-18 10:00",7.35,"Approved","OW115"
"2023-04-18 11:00",7.35,"Approved","OW115"
"2023-04-18 12:00",7.35,"Approved","OW115"
"2023-04-18 13:00",7.35,"Approved","OW115"
"2023-04-18 14:00",7.35,"Approved","OW115"
"2023-04-18 15:00",7.351,"Approved","OW115"
"2023-04-18 16:00",7.35,"Approved","OW115"
"2023-04-18 17:00",7.351,"Approved","OW115"
"2023-04-18 18:00",7.351,"Approved","OW115"
"2023-04-18 19:00",7.351,"Approved","OW115"
"2023-04-18 20:00",7.351,"Approved","OW115"
"2023-04-18 21:00",7.351,"Approved","OW115"
"2023-04-18 22:00",7.351,"Approved","OW115"
"2023-04-18 23:00",7.351,"Approved","OW115"
"2023-04-19 00:00",7.352,"Approved","OW115"
"2023-04-19 01:00",7.352,"Approved","OW115"
"2023-04-19 02:00",7.352,"Approved","OW115"
"2023-04-19 03:00",7.352,"Approved","OW115"
"2023-04-19 04:00",7.352,"Approved","OW115"
"2023-04-19 05:00",7.353,"Approved","OW115"
"2023-04-19 06:00",7.353,"Approved","OW115"
"2023-04-19 07:00",7.353,"Approved","OW115"
"2023-04-19 08:00",7.354,"Approved","OW115"
"2023-04-19 09:00",7.353,"Approved","OW115"
"2023-04-19 10:00",7.354,"Approved","OW115"
"2023-04-19 11:00",7.354,"Approved","OW115"
"2023-04-19 12:00",7.355,"Approved","OW115"
"2023-04-19 13:00",7.354,"Approved","OW115"
"2023-04-19 14:00",7.355,"Approved","OW115"
"2023-04-19 15:00",7.355,"Approved","OW115"
"2023-04-19 16:00",7.355,"Approved","OW115"
"2023-04-19 17:00",7.355,"Approved","OW115"
"2023-04-19 18:00",7.355,"Approved","OW115"
"2023-04-19 19:00",7.356,"Approved","OW115"
"2023-04-19 20:00",7.356,"Approved","OW115"
"2023-04-19 21:00",7.356,"Approved","OW115"
"2023-04-19 22:00",7.356,"Approved","OW115"
"2023-04-19 23:00",7.357,"Approved","OW115"
"2023-04-20 00:00",7.357,"Approved","OW115"
"2023-04-20 01:00",7.357,"Approved","OW115"
"2023-04-20 02:00",7.357,"Approved","OW115"
"2023-04-20 03:00",7.357,"Approved","OW115"
"2023-04-20 04:00",7.358,"Approved","OW115"
"2023-04-20 05:00",7.358,"Approved","OW115"
"2023-04-20 06:00",7.358,"Approved","OW115"
"2023-04-20 07:00",7.359,"Approved","OW115"
"2023-04-20 08:00",7.358,"Approved","OW115"
"2023-04-20 09:00",7.359,"Approved","OW115"
"2023-04-20 10:00",7.359,"Approved","OW115"
"2023-04-20 11:00",7.359,"Approved","OW115"
"2023-04-20 12:00",7.359,"Approved","OW115"
"2023-04-20 13:00",7.359,"Approved","OW115"
"2023-04-20 14:00",7.36,"Approved","OW115"
"2023-04-20 15:00",7.36,"Approved","OW115"
"2023-04-20 16:00",7.36,"Approved","OW115"
"2023-04-20 17:00",7.361,"Approved","OW115"
"2023-04-20 18:00",7.361,"Approved","OW115"
"2023-04-20 19:00",7.361,"Approved","OW115"
"2023-04-20 20:00",7.361,"Approved","OW115"
"2023-04-20 21:00",7.361,"Approved","OW115"
"2023-04-20 22:00",7.362,"Approved","OW115"
"2023-04-20 23:00",7.362,"Approved","OW115"
"2023-04-21 00:00",7.362,"Approved","OW115"
"2023-04-21 01:00",7.362,"Approved","OW115"
"2023-04-21 02:00",7.362,"Approved","OW115"
"2023-04-21 03:00",7.362,"Approved","OW115"
"2023-04-21 04:00",7.363,"Approved","OW115"
"2023-04-21 05:00",7.363,"Approved","OW115"
"2023-04-21 06:00",7.363,"Approved","OW115"
"2023-04-21 07:00",7.363,"Approved","OW115"
"2023-04-21 08:00",7.363,"Approved","OW115"
"2023-04-21 09:00",7.363,"Approved","OW115"
"2023-04-21 10:00",7.363,"Approved","OW115"
"2023-04-21 11:00",7.363,"Approved","OW115"
"2023-04-21 12:00",7.363,"Approved","OW115"
"2023-04-21 13:00",7.364,"Approved","OW115"
"2023-04-21 14:00",7.364,"Approved","OW115"
"2023-04-21 15:00",7.364,"Approved","OW115"
"2023-04-21 16:00",7.364,"Approved","OW115"
"2023-04-21 17:00",7.365,"Approved","OW115"
"2023-04-21 18:00",7.365,"Approved","OW115"
"2023-04-21 19:00",7.365,"Approved","OW115"
"2023-04-21 20:00",7.365,"Approved","OW115"
"2023-04-21 21:00",7.365,"Approved","OW115"
"2023-04-21 22:00",7.365,"Approved","OW115"
"2023-04-21 23:00",7.366,"Approved","OW115"
"2023-04-22 00:00",7.366,"Approved","OW115"
"2023-04-22 01:00",7.366,"Approved","OW115"
"2023-04-22 02:00",7.366,"Approved","OW115"
"2023-04-22 03:00",7.366,"Approved","OW115"
"2023-04-22 04:00",7.367,"Approved","OW115"
"2023-04-22 05:00",7.367,"Approved","OW115"
"2023-04-22 06:00",7.367,"Approved","OW115"
"2023-04-22 07:00",7.367,"Approved","OW115"
"2023-04-22 08:00",7.367,"Approved","OW115"
"2023-04-22 09:00",7.367,"Approved","OW115"
"2023-04-22 10:00",7.367,"Approved","OW115"
"2023-04-22 11:00",7.368,"Approved","OW115"
"2023-04-22 12:00",7.368,"Approved","OW115"
"2023-04-22 13:00",7.368,"Approved","OW115"
"2023-04-22 14:00",7.368,"Approved","OW115"
"2023-04-22 15:00",7.368,"Approved","OW115"
"2023-04-22 16:00",7.368,"Approved","OW115"
"2023-04-22 17:00",7.368,"Approved","OW115"
"2023-04-22 18:00",7.368,"Approved","OW115"
"2023-04-22 19:00",7.369,"Approved","OW115"
"2023-04-22 20:00",7.369,"Approved","OW115"
"2023-04-22 21:00",7.369,"Approved","OW115"
"2023-04-22 22:00",7.369,"Approved","OW115"
"2023-04-22 23:00",7.37,"Approved","OW115"
"2023-04-23 00:00",7.37,"Approved","OW115"
"2023-04-23 01:00",7.37,"Approved","OW115"
"2023-04-23 02:00",7.37,"Approved","OW115"
"2023-04-23 03:00",7.37,"Approved","OW115"
"2023-04-23 04:00",7.37,"Approved","OW115"
"2023-04-23 05:00",7.37,"Approved","OW115"
"2023-04-23 06:00",7.37,"Approved","OW115"
"2023-04-23 07:00",7.37,"Approved","OW115"
"2023-04-23 08:00",7.37,"Approved","OW115"
"2023-04-23 09:00",7.37,"Approved","OW115"
"2023-04-23 10:00",7.37,"Approved","OW115"
"2023-04-23 11:00",7.37,"Approved","OW115"
"2023-04-23 12:00",7.37,"Approved","OW115"
"2023-04-23 13:00",7.371,"Approved","OW115"
"2023-04-23 14:00",7.37,"Approved","OW115"
"2023-04-23 15:00",7.371,"Approved","OW115"
"2023-04-23 16:00",7.371,"Approved","OW115"
"2023-04-23 17:00",7.371,"Approved","OW115"
"2023-04-23 18:00",7.371,"Approved","OW115"
"2023-04-23 19:00",7.371,"Approved","OW115"
"2023-04-23 20:00",7.371,"Approved","OW115"
"2023-04-23 21:00",7.371,"Approved","OW115"
"2023-04-23 22:00",7.371,"Approved","OW115"
"2023-04-23 23:00",7.372,"Approved","OW115"
"2023-04-24 00:00",7.372,"Approved","OW115"
"2023-04-24 01:00",7.372,"Approved","OW115"
"2023-04-24 02:00",7.371,"Approved","OW115"
"2023-04-24 03:00",7.372,"Approved","OW115"
"2023-04-24 04:00",7.372,"Approved","OW115"
"2023-04-24 05:00",7.372,"Approved","OW115"
"2023-04-24 06:00",7.372,"Approved","OW115"
"2023-04-24 07:00",7.372,"Approved","OW115"
"2023-04-24 08:00",7.372,"Approved","OW115"
"2023-04-24 09:00",7.372,"Approved","OW115"
"2023-04-24 10:00",7.372,"Approved","OW115"
"2023-04-24 11:00",7.372,"Approved","OW115"
"2023-04-24 12:00",7.372,"Approved","OW115"
"2023-04-24 13:00",7.372,"Approved","OW115"
"2023-04-24 14:00",7.373,"Approved","OW115"
"2023-04-24 15:00",7.373,"Approved","OW115"
"2023-04-24 16:00",7.373,"Approved","OW115"
"2023-04-24 17:00",7.373,"Approved","OW115"
"2023-04-24 18:00",7.373,"Approved","OW115"
"2023-04-24 19:00",7.373,"Approved","OW115"
"2023-04-24 20:00",7.374,"Approved","OW115"
"2023-04-24 21:00",7.374,"Approved","OW115"
"2023-04-24 22:00",7.374,"Approved","OW115"
"2023-04-24 23:00",7.374,"Approved","OW115"
"2023-04-25 00:00",7.375,"Approved","OW115"
"2023-04-25 01:00",7.375,"Approved","OW115"
"2023-04-25 02:00",7.375,"Approved","OW115"
"2023-04-25 03:00",7.376,"Approved","OW115"
"2023-04-25 04:00",7.376,"Approved","OW115"
"2023-04-25 05:00",7.376,"Approved","OW115"
"2023-04-25 06:00",7.376,"Approved","OW115"
"2023-04-25 07:00",7.376,"Approved","OW115"
"2023-04-25 08:00",7.376,"Approved","OW115"
"2023-04-25 09:00",7.376,"Approved","OW115"
"2023-04-25 10:00",7.377,"Approved","OW115"
"2023-04-25 11:00",7.377,"Approved","OW115"
"2023-04-25 12:00",7.377,"Approved","OW115"
"2023-04-25 13:00",7.377,"Approved","OW115"
"2023-04-25 14:00",7.377,"Approved","OW115"
"2023-04-25 15:00",7.377,"Approved","OW115"
"2023-04-25 16:00",7.378,"Approved","OW115"
"2023-04-25 17:00",7.378,"Approved","OW115"
"2023-04-25 18:00",7.378,"Approved","OW115"
"2023-04-25 19:00",7.378,"Approved","OW115"
"2023-04-25 20:00",7.378,"Approved","OW115"
"2023-04-25 21:00",7.379,"Approved","OW115"
"2023-04-25 22:00",7.379,"Approved","OW115"
"2023-04-25 23:00",7.379,"Approved","OW115"
"2023-04-26 00:00",7.379,"Approved","OW115"
"2023-04-26 01:00",7.379,"Approved","OW115"
"2023-04-26 02:00",7.38,"Approved","OW115"
"2023-04-26 03:00",7.38,"Approved","OW115"
"2023-04-26 04:00",7.38,"Approved","OW115"
"2023-04-26 05:00",7.38,"Approved","OW115"
"2023-04-26 06:00",7.38,"Approved","OW115"
"2023-04-26 07:00",7.381,"Approved","OW115"
"2023-04-26 08:00",7.381,"Approved","OW115"
"2023-04-26 09:00",7.381,"Approved","OW115"
"2023-04-26 10:00",7.381,"Approved","OW115"
"2023-04-26 11:00",7.381,"Approved","OW115"
"2023-04-26 12:00",7.382,"Approved","OW115"
"2023-04-26 13:00",7.382,"Approved","OW115"
"2023-04-26 14:00",7.381,"Approved","OW115"
"2023-04-26 15:00",7.382,"Approved","OW115"
"2023-04-26 16:00",7.382,"Approved","OW115"
"2023-04-26 17:00",7.382,"Approved","OW115"
"2023-04-26 18:00",7.382,"Approved","OW115"
"2023-04-26 19:00",7.383,"Approved","OW115"
"2023-04-26 20:00",7.382,"Approved","OW115"
"2023-04-26 21:00",7.382,"Approved","OW115"
"2023-04-26 22:00",7.383,"Approved","OW115"
"2023-04-26 23:00",7.383,"Approved","OW115"
"2023-04-27 00:00",7.383,"Approved","OW115"
"2023-04-27 01:00",7.383,"Approved","OW115"
"2023-04-27 02:00",7.383,"Approved","OW115"
"2023-04-27 03:00",7.384,"Approved","OW115"
"2023-04-27 04:00",7.384,"Approved","OW115"
"2023-04-27 05:00",7.384,"Approved","OW115"
"2023-04-27 06:00",7.384,"Approved","OW115"
"2023-04-27 07:00",7.384,"Approved","OW115"
"2023-04-27 08:00",7.384,"Approved","OW115"
"2023-04-27 09:00",7.384,"Approved","OW115"
"2023-04-27 10:00",7.385,"Approved","OW115"
"2023-04-27 11:00",7.385,"Approved","OW115"
"2023-04-27 12:00",7.385,"Approved","OW115"
"2023-04-27 13:00",7.385,"Approved","OW115"
"2023-04-27 14:00",7.385,"Approved","OW115"
"2023-04-27 15:00",7.385,"Approved","OW115"
"2023-04-27 16:00",7.385,"Approved","OW115"
"2023-04-27 17:00",7.386,"Approved","OW115"
"2023-04-27 18:00",7.386,"Approved","OW115"
"2023-04-27 19:00",7.386,"Approved","OW115"
"2023-04-27 20:00",7.386,"Approved","OW115"
"2023-04-27 21:00",7.386,"Approved","OW115"
"2023-04-27 22:00",7.387,"Approved","OW115"
"2023-04-27 23:00",7.387,"Approved","OW115"
"2023-04-28 00:00",7.387,"Approved","OW115"
"2023-04-28 01:00",7.387,"Approved","OW115"
"2023-04-28 02:00",7.388,"Approved","OW115"
"2023-04-28 03:00",7.388,"Approved","OW115"
"2023-04-28 04:00",7.388,"Approved","OW115"
"2023-04-28 05:00",7.388,"Approved","OW115"
"2023-04-28 06:00",7.388,"Approved","OW115"
"2023-04-28 07:00",7.389,"Approved","OW115"
"2023-04-28 08:00",7.389,"Approved","OW115"
"2023-04-28 09:00",7.389,"Approved","OW115"
"2023-04-28 10:00",7.389,"Approved","OW115"
"2023-04-28 11:00",7.389,"Approved","OW115"
"2023-04-28 12:00",7.389,"Approved","OW115"
"2023-04-28 13:00",7.389,"Approved","OW115"
"2023-04-28 14:00",7.389,"Approved","OW115"
"2023-04-28 15:00",7.39,"Approved","OW115"
"2023-04-28 16:00",7.39,"Approved","OW115"
"2023-04-28 17:00",7.39,"Approved","OW115"
"2023-04-28 18:00",7.39,"Approved","OW115"
"2023-04-28 19:00",7.39,"Approved","OW115"
"2023-04-28 20:00",7.39,"Approved","OW115"
"2023-04-28 21:00",7.39,"Approved","OW115"
"2023-04-28 22:00",7.39,"Approved","OW115"
"2023-04-28 23:00",7.39,"Approved","OW115"
"2023-04-29 00:00",7.391,"Approved","OW115"
"2023-04-29 01:00",7.391,"Approved","OW115"
"2023-04-29 02:00",7.391,"Approved","OW115"
"2023-04-29 03:00",7.391,"Approved","OW115"
"2023-04-29 04:00",7.391,"Approved","OW115"
"2023-04-29 05:00",7.392,"Approved","OW115"
"2023-04-29 06:00",7.391,"Approved","OW115"
"2023-04-29 07:00",7.392,"Approved","OW115"
"2023-04-29 08:00",7.392,"Approved","OW115"
"2023-04-29 09:00",7.392,"Approved","OW115"
"2023-04-29 10:00",7.392,"Approved","OW115"
"2023-04-29 11:00",7.392,"Approved","OW115"
"2023-04-29 12:00",7.392,"Approved","OW115"
"2023-04-29 13:00",7.392,"Approved","OW115"
"2023-04-29 14:00",7.392,"Approved","OW115"
"2023-04-29 15:00",7.392,"Approved","OW115"
"2023-04-29 16:00",7.392,"Approved","OW115"
"2023-04-29 17:00",7.393,"Approved","OW115"
"2023-04-29 18:00",7.392,"Approved","OW115"
"2023-04-29 19:00",7.392,"Approved","OW115"
"2023-04-29 20:00",7.392,"Approved","OW115"
"2023-04-29 21:00",7.393,"Approved","OW115"
"2023-04-29 22:00",7.393,"Approved","OW115"
"2023-04-29 23:00",7.393,"Approved","OW115"
"2023-04-30 00:00",7.393,"Approved","OW115"
"2023-04-30 01:00",7.393,"Approved","OW115"
"2023-04-30 02:00",7.393,"Approved","OW115"
"2023-04-30 03:00",7.393,"Approved","OW115"
"2023-04-30 04:00",7.393,"Approved","OW115"
"2023-04-30 05:00",7.393,"Approved","OW115"
"2023-04-30 06:00",7.394,"Approved","OW115"
"2023-04-30 07:00",7.394,"Approved","OW115"
"2023-04-30 08:00",7.394,"Approved","OW115"
"2023-04-30 09:00",7.394,"Approved","OW115"
"2023-04-30 10:00",7.394,"Approved","OW115"
"2023-04-30 11:00",7.394,"Approved","OW115"
"2023-04-30 12:00",7.394,"Approved","OW115"
"2023-04-30 13:00",7.394,"Approved","OW115"
"2023-04-30 14:00",7.394,"Approved","OW115"
"2023-04-30 15:00",7.394,"Approved","OW115"
"2023-04-30 16:00",7.394,"Approved","OW115"
"2023-04-30 17:00",7.394,"Approved","OW115"
"2023-04-30 18:00",7.394,"Approved","OW115"
"2023-04-30 19:00",7.394,"Approved","OW115"
"2023-04-30 20:00",7.394,"Approved","OW115"
"2023-04-30 21:00",7.394,"Approved","OW115"
"2023-04-30 22:00",7.394,"Approved","OW115"
"2023-04-30 23:00",7.394,"Approved","OW115"
"2023-05-01 00:00",7.394,"Approved","OW115"
"2023-05-01 01:00",7.394,"Approved","OW115"
"2023-05-01 02:00",7.394,"Approved","OW115"
"2023-05-01 03:00",7.394,"Approved","OW115"
"2023-05-01 04:00",7.394,"Approved","OW115"
"2023-05-01 05:00",7.394,"Approved","OW115"
"2023-05-01 06:00",7.394,"Approved","OW115"
"2023-05-01 07:00",7.394,"Approved","OW115"
"2023-05-01 08:00",7.395,"Approved","OW115"
"2023-05-01 09:00",7.394,"Approved","OW115"
"2023-05-01 10:00",7.394,"Approved","OW115"
"2023-05-01 11:00",7.394,"Approved","OW115"
"2023-05-01 12:00",7.394,"Approved","OW115"
"2023-05-01 13:00",7.394,"Approved","OW115"
"2023-05-01 14:00",7.394,"Approved","OW115"
"2023-05-01 15:00",7.394,"Approved","OW115"
"2023-05-01 16:00",7.394,"Approved","OW115"
"2023-05-01 17:00",7.394,"Approved","OW115"
"2023-05-01 18:00",7.394,"Approved","OW115"
"2023-05-01 19:00",7.394,"Approved","OW115"
"2023-05-01 20:00",7.394,"Approved","OW115"
"2023-05-01 21:00",7.394,"Approved","OW115"
"2023-05-01 22:00",7.394,"Approved","OW115"
"2023-05-01 23:00",7.394,"Approved","OW115"
"2023-05-02 00:00",7.393,"Approved","OW115"
"2023-05-02 01:00",7.393,"Approved","OW115"
"2023-05-02 02:00",7.393,"Approved","OW115"
"2023-05-02 03:00",7.393,"Approved","OW115"
"2023-05-02 04:00",7.393,"Approved","OW115"
"2023-05-02 05:00",7.393,"Approved","OW115"
"2023-05-02 06:00",7.393,"Approved","OW115"
"2023-05-02 07:00",7.393,"Approved","OW115"
"2023-05-02 08:00",7.392,"Approved","OW115"
"2023-05-02 09:00",7.392,"Approved","OW115"
"2023-05-02 10:00",7.392,"Approved","OW115"
"2023-05-02 11:00",7.392,"Approved","OW115"
"2023-05-02 12:00",7.391,"Approved","OW115"
"2023-05-02 13:00",7.391,"Approved","OW115"
"2023-05-02 14:00",7.391,"Approved","OW115"
"2023-05-02 15:00",7.391,"Approved","OW115"
"2023-05-02 16:00",7.391,"Approved","OW115"
"2023-05-02 17:00",7.39,"Approved","OW115"
"2023-05-02 18:00",7.39,"Approved","OW115"
"2023-05-02 19:00",7.389,"Approved","OW115"
"2023-05-02 20:00",7.389,"Approved","OW115"
"2023-05-02 21:00",7.389,"Approved","OW115"
"2023-05-02 22:00",7.388,"Approved","OW115"
"2023-05-02 23:00",7.387,"Approved","OW115"
"2023-05-03 00:00",7.387,"Approved","OW115"
"2023-05-03 01:00",7.386,"Approved","OW115"
"2023-05-03 02:00",7.385,"Approved","OW115"
"2023-05-03 03:00",7.385,"Approved","OW115"
"2023-05-03 04:00",7.384,"Approved","OW115"
"2023-05-03 05:00",7.383,"Approved","OW115"
"2023-05-03 06:00",7.383,"Approved","OW115"
"2023-05-03 07:00",7.382,"Approved","OW115"
"2023-05-03 08:00",7.381,"Approved","OW115"
"2023-05-03 09:00",7.381,"Approved","OW115"
"2023-05-03 10:00",7.38,"Approved","OW115"
"2023-05-03 11:00",7.379,"Approved","OW115"
"2023-05-03 12:00",7.378,"Approved","OW115"
"2023-05-03 13:00",7.377,"Approved","OW115"
"2023-05-03 14:00",7.375,"Approved","OW115"
"2023-05-03 15:00",7.375,"Approved","OW115"
"2023-05-03 16:00",7.374,"Approved","OW115"
"2023-05-03 17:00",7.373,"Approved","OW115"
"2023-05-03 18:00",7.372,"Approved","OW115"
"2023-05-03 19:00",7.371,"Approved","OW115"
"2023-05-03 20:00",7.37,"Approved","OW115"
"2023-05-03 21:00",7.368,"Approved","OW115"
"2023-05-03 22:00",7.368,"Approved","OW115"
"2023-05-03 23:00",7.365,"Approved","OW115"
"2023-05-04 00:00",7.365,"Approved","OW115"
"2023-05-04 01:00",7.363,"Approved","OW115"
"2023-05-04 02:00",7.361,"Approved","OW115"
"2023-05-04 03:00",7.36,"Approved","OW115"
"2023-05-04 04:00",7.358,"Approved","OW115"
"2023-05-04 05:00",7.356,"Approved","OW115"
"2023-05-04 06:00",7.355,"Approved","OW115"
"2023-05-04 07:00",7.353,"Approved","OW115"
"2023-05-04 08:00",7.351,"Approved","OW115"
"2023-05-04 10:00",7.347,"Approved","OW115"
"2023-05-04 11:00",7.345,"Approved","OW115"
"2023-05-04 12:00",7.343,"Approved","OW115"
"2023-05-04 13:00",7.341,"Approved","OW115"
"2023-05-04 14:00",7.339,"Approved","OW115"
"2023-05-04 15:00",7.337,"Approved","OW115"
"2023-05-04 16:00",7.335,"Approved","OW115"
"2023-05-04 17:00",7.333,"Approved","OW115"
"2023-05-04 18:00",7.33,"Approved","OW115"
"2023-05-04 19:00",7.328,"Approved","OW115"
"2023-05-04 20:00",7.325,"Approved","OW115"
"2023-05-04 21:00",7.324,"Approved","OW115"
"2023-05-04 22:00",7.321,"Approved","OW115"
"2023-05-04 23:00",7.318,"Approved","OW115"
"2023-05-05 00:00",7.316,"Approved","OW115"
"2023-05-05 01:00",7.312,"Approved","OW115"
"2023-05-05 02:00",7.309,"Approved","OW115"
"2023-05-05 03:00",7.306,"Approved","OW115"
"2023-05-05 04:00",7.303,"Approved","OW115"
"2023-05-05 05:00",7.3,"Approved","OW115"
"2023-05-05 06:00",7.297,"Approved","OW115"
"2023-05-05 07:00",7.293,"Approved","OW115"
"2023-05-05 08:00",7.29,"Approved","OW115"
"2023-05-05 10:00",7.283,"Approved","OW115"
"2023-05-05 11:00",7.277,"Approved","OW115"
"2023-05-05 12:00",7.268,"Approved","OW115"
"2023-05-05 13:00",7.255,"Approved","OW115"
"2023-05-05 14:00",7.225,"Approved","OW115"
"2023-05-05 15:00",7.183,"Approved","OW115"
"2023-05-05 16:00",7.135,"Approved","OW115"
"2023-05-05 17:00",7.08,"Approved","OW115"
"2023-05-05 18:00",7.02,"Approved","OW115"
"2023-05-05 19:00",6.95,"Approved","OW115"
"2023-05-05 20:00",6.874,"Approved","OW115"
"2023-05-05 21:00",6.794,"Approved","OW115"
"2023-05-05 22:00",6.71,"Approved","OW115"
"2023-05-05 23:00",6.622,"Approved","OW115"
"2023-05-06 00:00",6.529,"Approved","OW115"
"2023-05-06 01:00",6.425,"Approved","OW115"
"2023-05-06 02:00",6.314,"Approved","OW115"
"2023-05-06 03:00",6.192,"Approved","OW115"
"2023-05-06 04:00",6.062,"Approved","OW115"
"2023-05-06 05:00",5.957,"Approved","OW115"
"2023-05-06 06:00",5.837,"Approved","OW115"
"2023-05-06 07:00",5.715,"Approved","OW115"
"2023-05-06 08:00",5.582,"Approved","OW115"
"2023-05-06 09:00",5.454,"Approved","OW115"
"2023-05-06 10:00",5.301,"Approved","OW115"
"2023-05-06 11:00",5.143,"Approved","OW115"
"2023-05-06 12:00",4.988,"Approved","OW115"
"2023-05-06 13:00",4.831,"Approved","OW115"
"2023-05-06 14:00",4.671,"Approved","OW115"
"2023-05-06 15:00",4.515,"Approved","OW115"
"2023-05-06 16:00",4.367,"Approved","OW115"
"2023-05-06 17:00",4.21,"Approved","OW115"
"2023-05-06 18:00",4.066,"Approved","OW115"
"2023-05-06 19:00",3.969,"Approved","OW115"
"2023-05-06 20:00",3.822,"Approved","OW115"
"2023-05-06 21:00",3.63,"Approved","OW115"
"2023-05-06 22:00",3.438,"Approved","OW115"
"2023-05-06 23:00",3.248,"Approved","OW115"
"2023-05-07 00:00",3.067,"Approved","OW115"
"2023-05-07 01:00",2.907,"Approved","OW115"
"2023-05-07 02:00",2.807,"Approved","OW115"
"2023-05-07 03:00",2.725,"Approved","OW115"
"2023-05-07 04:00",2.654,"Approved","OW115"
"2023-05-07 05:00",2.606,"Approved","OW115"
"2023-05-07 06:00",2.568,"Approved","OW115"
"2023-05-07 07:00",2.531,"Approved","OW115"
"2023-05-07 08:00",2.492,"Approved","OW115"
"2023-05-07 09:00",2.443,"Approved","OW115"
"2023-05-07 10:00",2.371,"Approved","OW115"
"2023-05-07 11:00",2.204,"Approved","OW115"
"2023-05-07 12:00",2.051,"Approved","OW115"
"2023-05-07 13:00",1.944,"Approved","OW115"
"2023-05-07 14:00",1.871,"Approved","OW115"
"2023-05-07 15:00",1.82,"Approved","OW115"
"2023-05-07 16:00",1.783,"Approved","OW115"
"2023-05-07 17:00",1.757,"Approved","OW115"
"2023-05-07 18:00",1.74,"Approved","OW115"
"2023-05-07 19:00",1.731,"Approved","OW115"
"2023-05-07 20:00",1.728,"Approved","OW115"
"2023-05-07 21:00",1.728,"Approved","OW115"
"2023-05-07 22:00",1.729,"Approved","OW115"
"2023-05-07 23:00",1.731,"Approved","OW115"
"2023-05-08 00:00",1.732,"Approved","OW115"
"2023-05-08 01:00",1.734,"Approved","OW115"
"2023-05-08 02:00",1.736,"Approved","OW115"
"2023-05-08 03:00",1.74,"Approved","OW115"
"2023-05-08 04:00",1.743,"Approved","OW115"
"2023-05-08 05:00",1.746,"Approved","OW115"
"2023-05-08 06:00",1.747,"Approved","OW115"
"2023-05-08 07:00",1.75,"Approved","OW115"
"2023-05-08 08:00",1.754,"Approved","OW115"
"2023-05-08 09:00",1.759,"Approved","OW115"
"2023-05-08 10:00",1.762,"Approved","OW115"
"2023-05-08 11:00",1.765,"Approved","OW115"
"2023-05-08 12:00",1.768,"Approved","OW115"
"2023-05-08 13:00",1.771,"Approved","OW115"
"2023-05-08 14:00",1.776,"Approved","OW115"
"2023-05-08 15:00",1.781,"Approved","OW115"
"2023-05-08 16:00",1.785,"Approved","OW115"
"2023-05-08 17:00",1.79,"Approved","OW115"
"2023-05-08 18:00",1.79,"Approved","OW115"
"2023-05-08 19:00",1.792,"Approved","OW115"
"2023-05-08 20:00",1.793,"Approved","OW115"
"2023-05-08 21:00",1.795,"Approved","OW115"
"2023-05-08 22:00",1.796,"Approved","OW115"
"2023-05-08 23:00",1.798,"Approved","OW115"
"2023-05-09 00:00",1.854,"Approved","OW115"
"2023-05-09 01:00",1.842,"Approved","OW115"
"2023-05-09 02:00",1.834,"Approved","OW115"
"2023-05-09 03:00",1.826,"Approved","OW115"
"2023-05-09 04:00",1.82,"Approved","OW115"
"2023-05-09 05:00",1.816,"Approved","OW115"
"2023-05-09 06:00",1.81,"Approved","OW115"
"2023-05-09 07:00",1.805,"Approved","OW115"
"2023-05-09 08:00",1.801,"Approved","OW115"
"2023-05-09 09:00",1.796,"Approved","OW115"
"2023-05-09 10:00",1.791,"Approved","OW115"
"2023-05-09 11:00",1.82,"Approved","OW115"
"2023-05-09 12:00",1.81,"Approved","OW115"
"2023-05-09 13:00",1.801,"Approved","OW115"
"2023-05-09 14:00",1.794,"Approved","OW115"
"2023-05-09 15:00",1.789,"Approved","OW115"
"2023-05-09 16:00",1.785,"Approved","OW115"
"2023-05-09 17:00",1.782,"Approved","OW115"
"2023-05-09 18:00",1.779,"Approved","OW115"
"2023-05-09 19:00",1.776,"Approved","OW115"
"2023-05-09 20:00",1.774,"Approved","OW115"
"2023-05-09 21:00",1.772,"Approved","OW115"
"2023-05-09 22:00",1.771,"Approved","OW115"
"2023-05-09 23:00",1.77,"Approved","OW115"
"2023-05-10 00:00",1.803,"Approved","OW115"
"2023-05-10 01:00",1.796,"Approved","OW115"
"2023-05-10 02:00",1.789,"Approved","OW115"
"2023-05-10 03:00",1.785,"Approved","OW115"
"2023-05-10 04:00",1.782,"Approved","OW115"
"2023-05-10 05:00",1.778,"Approved","OW115"
"2023-05-10 06:00",1.775,"Approved","OW115"